Location: Newark
(13.6797°N, 8.5297°E)
Time: 21:58:03
(UTC+00:00)

Altair - Pass Details

Date: 30 January 2020
Orbit: 1502 x 1682 km, 47.2° (Epoch: 19 February)

Event Time Altitude Azimuth Distance (km) Brightness Sun altitude
Rises 05:33:44 0° 242° (WSW) 4,758 9.6 -5.4°
Reaches altitude 10° 05:37:01 10° 249° (WSW) 3,799 9.1 -4.6°
Maximum altitude 05:46:00 42° 317° (NW) 2,196 8.0 -2.5°
Drops below altitude 10° 05:55:20 10° 25° (NNE) 3,917 9.8 -0.4°
Sets 05:58:48 0° 33° (NNE) 4,918 10.3 0.4°
